User: anonymous   Login
Location: Unspecified
(0.0000°N, 0.0000°E)
Time: 23:44:16
(UTC+01:00)
Language:

Cosmos 1538 Rocket - Orbit

View from above orbital plane
View from above orbital plane
View from above satellite
View from above satellite

Ground track
Ground track

The orbit data is extracted from the following two-line orbital elements,

1 14760U 84019B   15031.27388296  .00000236  00000-0  90473-4 0  5269
2 14760 074.0432 273.7901 0028315 344.6595 154.5836 14.35626741619023
Epoch (UTC): 31 January 2015 06:34:23
Eccentricity: 0.0028315
inclination: 74.0432°
perigee height: 753 km
apogee height: 793 km
right ascension of ascending node: 273.7901°
argument of perigee: 344.6595°
revolutions per day: 14.35626741
mean anomaly at epoch: 154.5836°
orbit number at epoch: 61902

The dashed part of the orbit path shows where the satellite is in the earth's shadow,  

DLR